Home   Weather   Opole   Past weeks

Flag for Poland Past Weather in Opole, Poland — Yesterday and Last 2 Weeks

Now
41 °F

Light rain. Passing clouds.


Feels Like: 39 °F
Forecast: 38 / 49 °F
Wind: 3 mph from East

Location: Wroclaw Ii

Current Time: Apr 26, 2017 at 1:38:05 pm

Latest Report: Apr 26, 2017 at 1:00 pm


Visibility: N/A

Pressure: 29.89 "Hg

Humidity: 81%

Dew Point: 36 °F

Location of OpoleLocation

Past Weather in Opole — Graph

°F

Opole Temperature Yesterday

Maximum temperature yesterday: 64 °F (at 1:30 pm)
Minimum temperature yesterday: 41 °F (at 4:30 am)
Average temperature yesterday: 51 °F

High & Low Weather Summary for the Past Weeks

 TemperatureHumidityPressure
High64 °F (Apr 25, 1:30 pm)100% (Apr 16, 10:00 pm)30.48 "Hg (Apr 16, 10:00 pm)
Low30 °F (Apr 19, 6:30 am)34% (Apr 25, 1:30 pm)29.62 "Hg (Apr 25, 9:00 am)
Average44 °F70%30.01 "Hg
* Reported Apr 11 12:00 pm — Apr 26 12:00 pm, Opole, Weather by CustomWeather, © 2017

Note: Actual official high and low records may vary slightly from our data, if they occured in-between our weather recording intervals... More about our weather records

Advertising

Opole Weather History for the Previous 24 Hours

Scroll right to see more
 ConditionsComfort  
Time TempWeatherWind HumidityBarometerVisibility
12:00 pm
Wed, Apr 26
41 °FLight rain. Partly sunny.3 mph81%29.89 "Hg4 mi
11:30 am41 °FLight rain. Partly sunny.3 mph81%29.89 "Hg5 mi
11:00 am43 °FLight rain. Partly sunny.3 mph87%29.89 "HgN/A
10:30 am43 °FLight rain. Broken clouds.3 mph87%29.86 "HgN/A
10:00 am43 °FLight rain. Passing clouds.3 mph87%29.86 "HgN/A
9:30 am41 °FPassing clouds.3 mph93%29.86 "HgN/A
9:00 am41 °FLight rain. Passing clouds.5 mph93%29.86 "HgN/A
8:30 am41 °FLight rain. Passing clouds.2 mph93%29.86 "HgN/A
8:00 am41 °FLight rain. Partly sunny.1 mph87%29.83 "HgN/A
7:30 am41 °FLight rain. Broken clouds.1 mph87%29.83 "HgN/A
7:00 am41 °FLight rain. Scattered clouds.1 mph87%29.83 "HgN/A
6:30 am41 °FLight rain. Scattered clouds.3 mph87%29.83 "HgN/A
6:00 am39 °FLight rain. Broken clouds.3 mph93%29.83 "HgN/A
5:30 am41 °FLight rain. Partly cloudy.6 mph87%29.83 "HgN/A
5:00 am41 °FLight rain. Passing clouds.7 mph87%29.83 "HgN/A
4:30 am41 °FLight rain. Passing clouds.8 mph87%29.80 "HgN/A
4:00 am41 °FLight rain. Passing clouds.7 mph87%29.80 "HgN/A
3:30 am41 °FPassing clouds.6 mph87%29.80 "HgN/A
3:00 am43 °FPassing clouds.6 mph81%29.80 "HgN/A
2:30 am41 °FPassing clouds.6 mph87%29.80 "HgN/A
2:00 am41 °FPassing clouds.7 mph87%29.80 "HgN/A
1:30 am43 °FLight rain. Partly cloudy.1 mph76%29.80 "HgN/A
1:00 am43 °FLight rain. Partly cloudy.2 mph81%29.80 "HgN/A
12:30 am43 °FLight rain. Partly cloudy.9 mph81%29.80 "HgN/A
12:00 am43 °FLight rain. Passing clouds.13 mph81%29.80 "HgN/A
11:30 pm
Tue, Apr 25
43 °FLight rain. Partly cloudy.9 mph87%29.77 "HgN/A
11:00 pm43 °FLight rain. Overcast.12 mph87%29.77 "HgN/A
10:30 pm45 °FLight rain. Passing clouds.9 mph81%29.77 "HgN/A
10:00 pm45 °FLight rain. Passing clouds.9 mph81%29.77 "HgN/A
9:30 pm46 °FLight rain. Passing clouds.9 mph76%29.77 "HgN/A
9:00 pm46 °FLight rain. Passing clouds.12 mph71%29.77 "HgN/A
8:30 pm48 °FPassing clouds.10 mph66%29.74 "HgN/A
8:00 pm50 °FSunny.12 mph62%29.74 "Hg10 mi
7:30 pm50 °FSunny.14 mph62%29.74 "Hg10 mi
7:00 pm52 °FSunny.17 mph62%29.71 "Hg10 mi
6:30 pm55 °FSunny.20 mph59%29.71 "Hg10 mi
6:00 pm57 °FSprinkles. Passing clouds.14 mph51%29.68 "HgN/A
5:30 pm59 °FPassing clouds.13 mph48%29.65 "HgN/A
5:00 pm59 °FSunny.13 mph48%29.65 "Hg10 mi
4:30 pm61 °FSunny.13 mph45%29.65 "Hg10 mi
4:00 pm61 °FSunny.10 mph45%29.62 "Hg10 mi
3:30 pm61 °FSunny.14 mph48%29.65 "Hg10 mi
3:00 pm61 °FSunny.14 mph45%29.65 "Hg10 mi
2:30 pm61 °FSunny.16 mph42%29.65 "Hg10 mi
2:00 pm63 °FPassing clouds.12 mph39%29.62 "HgN/A
1:30 pm64 °FPassing clouds.16 mph34%29.62 "HgN/A
1:00 pm63 °FPassing clouds.14 mph42%29.62 "HgN/A
Weather by CustomWeather, © 2017

See weather overviewHow to use our weather pages